Columbus, MS

3:16 PM CST on February 20, 2017 (GMT -0600)
Columbus Air Force Base

Weather History for KCBM - April, 2013

Change the Weather History Date:

Thursday, April 4, 2013

  Actual Average Record
Temperature  
Mean Temperature 49 °F -  
Max Temperature 53 °F 70 °F 81 °F (2012)
Min Temperature 45 °F 49 °F 37 °F (2002)
Degree Days  
Heating Degree Days 16    
Moisture  
Dew Point 50 °F    
Average Humidity 100    
Maximum Humidity 100    
Minimum Humidity 94    
Precipitation  
Precipitation 0.28 in - - ()
Sea Level Pressure  
Sea Level Pressure 29.98 in    
Wind  
Wind Speed 5 mph (NE)    
Max Wind Speed 10 mph    
Max Gust Speed -    
Visibility 6 miles    
Events Rain    
Averages and records for this station are not official NWS values.
T = Trace of Precipitation, MM = Missing Value Source: NWS Daily Summary

Daily Weather History Graph

Daily Weather History Graph

Search for Another Location

Airport or City:

Trip Planner

Search our weather history database for the weather conditions in past years. The results will help you decide how hot, cold, wet, or windy it might be!

Date:

Astronomy

Apr. 04, 2013 Rise Set
Actual Time 6:37 AM CDT 7:16 PM CDT
Civil Twilight 6:11 AM CDT 7:42 PM CDT
Nautical Twilight 5:42 AM CDT 8:11 PM CDT
Astronomical Twilight 5:12 AM CDT 8:42 PM CDT
Moon 2:47 AM CDT (4/4) 1:50 PM CDT (4/4)
Length of Visible Light 13h 30m
Length of Day
12h 39m
Waning Crescent, 33% of the Moon is Illuminated
Apr 4
Waning Crescent
Apr 10
New
Apr 18
First Quarter
Apr 25
Full
May 2
Last Quarter

Hourly Weather History & Observations

Time (CDT) Temp. Windchill Dew Point Humidity Pressure Visibility Wind Dir Wind Speed Gust Speed Precip Events Conditions
12:38 AM 46.4 °F 42.9 °F 46.4 °F 100% 30.07 in 6.0 mi ENE 6.9 mph - N/A Rain Light Rain
12:48 AM 46.4 °F 42.9 °F 46.4 °F 100% 30.06 in 5.0 mi ENE 6.9 mph - N/A Rain Light Rain
12:58 AM 45.9 °F 42.3 °F 45.9 °F 100% 30.06 in 5.0 mi ENE 6.9 mph - 0.03 in Rain Light Rain
1:23 AM 46.4 °F 44.3 °F 46.4 °F 100% 30.04 in 8.0 mi NE 4.6 mph - N/A Rain Light Rain
1:33 AM 46.4 °F 43.5 °F 46.4 °F 100% 30.04 in 5.0 mi NNE 5.8 mph - N/A Rain Light Rain
1:38 AM 46.4 °F 43.5 °F 46.4 °F 100% 30.03 in 4.0 mi NNE 5.8 mph - N/A Rain Light Rain
1:43 AM 46.4 °F 43.5 °F 46.4 °F 100% 30.03 in 5.0 mi NNE 5.8 mph - N/A Rain Light Rain
1:58 AM 46.0 °F 44.8 °F 46.0 °F 100% 30.04 in 7.0 mi NE 3.5 mph - 0.04 in Rain Light Rain
2:08 AM 46.4 °F - 46.4 °F 100% 30.03 in 4.0 mi NE 2.3 mph - N/A Rain Rain
2:13 AM 46.4 °F - 46.4 °F 100% 30.03 in 3.0 mi NNE 1.2 mph - N/A Rain Rain
2:18 AM 46.4 °F - 46.4 °F 100% 30.03 in 4.0 mi NNE 1.2 mph - N/A Rain Rain
2:23 AM 46.4 °F - 46.4 °F 100% 30.03 in 3.0 mi NNE 2.3 mph - N/A Rain Rain
2:28 AM 46.4 °F 45.2 °F 46.4 °F 100% 30.02 in 4.0 mi NNE 3.5 mph - N/A Rain Light Rain
2:38 AM 46.4 °F - 46.4 °F 100% 30.01 in 5.0 mi NNE 1.2 mph - N/A Rain Light Rain
2:48 AM 46.4 °F 45.2 °F 46.4 °F 100% 30.01 in 9.0 mi NNE 3.5 mph - N/A   Light Drizzle
2:54 AM 46.4 °F - 46.4 °F 100% 30.01 in 10.0 mi NNE 1.2 mph - N/A   Overcast
2:58 AM 46.4 °F - 46.4 °F 100% 30.02 in 10.0 mi NNE 2.3 mph - 0.07 in   Overcast
3:03 AM 46.4 °F - 46.4 °F 100% 30.01 in 10.0 mi NNE 2.3 mph - N/A   Light Drizzle
3:12 AM 46.4 °F 44.3 °F 46.4 °F 100% 29.99 in 10.0 mi NE 4.6 mph - N/A   Overcast
3:32 AM 46.4 °F 45.2 °F 46.4 °F 100% 29.99 in 10.0 mi NNE 3.5 mph - N/A   Overcast
3:37 AM 46.4 °F 44.3 °F 46.4 °F 100% 29.99 in 10.0 mi NNE 4.6 mph - N/A   Overcast
3:42 AM 46.4 °F 45.2 °F 46.4 °F 100% 29.99 in 10.0 mi NNE 3.5 mph - N/A   Overcast
3:57 AM 46.4 °F - 46.4 °F 100% 29.98 in 10.0 mi NNE 2.3 mph - N/A   Overcast
3:58 AM 46.8 °F - 46.8 °F 100% 29.99 in 10.0 mi NNE 2.3 mph - 0.00 in   Overcast
4:03 AM 46.4 °F 45.2 °F 46.4 °F 100% 29.98 in 10.0 mi NNE 3.5 mph - N/A   Overcast
4:13 AM 46.4 °F 44.3 °F 46.4 °F 100% 29.98 in 10.0 mi NNE 4.6 mph - N/A   Overcast
4:23 AM 46.4 °F 43.5 °F 46.4 °F 100% 29.99 in 10.0 mi NNE 5.8 mph - N/A Rain Light Rain
4:48 AM 46.4 °F 43.5 °F 46.4 °F 100% 29.99 in 7.0 mi North 5.8 mph - N/A Rain Light Rain
4:58 AM 46.9 °F - 46.9 °F 100% 30.00 in 7.0 mi North 4.6 mph - 0.00 in Rain Light Rain
5:23 AM 46.4 °F 45.2 °F 46.4 °F 100% 30.00 in 6.0 mi North 3.5 mph - N/A   Light Drizzle
5:53 AM 48.2 °F - 48.2 °F 100% 30.00 in 7.0 mi NNE 5.8 mph - N/A Rain Light Rain
5:58 AM 47.3 °F - 47.3 °F 100% 30.01 in 7.0 mi NNE 6.9 mph - 0.02 in Rain Light Rain
6:03 AM 48.2 °F - 48.2 °F 100% 29.98 in 7.0 mi NE 10.4 mph - N/A Rain Light Rain
6:13 AM 48.2 °F - 48.2 °F 100% 29.96 in 5.0 mi NE 9.2 mph - N/A   Light Drizzle
6:14 AM 48.2 °F - 48.2 °F 100% 29.96 in 5.0 mi NE 8.1 mph - N/A   Overcast
6:19 AM 48.2 °F - 48.2 °F 100% 29.96 in 6.0 mi NE 9.2 mph - N/A   Overcast
6:24 AM 48.2 °F - 48.2 °F 100% 29.96 in 6.0 mi ENE 9.2 mph - N/A   Overcast
6:29 AM 48.2 °F - 48.2 °F 100% 29.97 in 7.0 mi ENE 5.8 mph - N/A   Overcast
6:34 AM 48.2 °F - 48.2 °F 100% 29.97 in 9.0 mi ENE 5.8 mph - N/A   Overcast
6:39 AM 48.2 °F - 48.2 °F 100% 29.98 in 10.0 mi NE 2.3 mph - N/A   Overcast
6:44 AM 48.2 °F - 48.2 °F 100% 29.98 in 10.0 mi NE 4.6 mph - N/A   Overcast
6:54 AM 48.2 °F - 48.2 °F 100% 29.99 in 10.0 mi NE 3.5 mph - N/A   Overcast
6:58 AM 47.8 °F - 47.8 °F 100% 30.00 in 10.0 mi NNE 1.2 mph - 0.00 in   Overcast
7:23 AM 48.2 °F - 48.2 °F 100% 30.00 in 10.0 mi NNW 2.3 mph - N/A   Overcast
7:48 AM 48.2 °F - 48.2 °F 100% 30.00 in 10.0 mi North 3.5 mph - N/A   Overcast
7:58 AM 48.2 °F - 48.2 °F 100% 30.01 in 10.0 mi NNE 2.3 mph - N/A   Overcast
8:23 AM 48.2 °F - 48.2 °F 100% 30.00 in 10.0 mi NNE 2.3 mph - N/A   Overcast
8:58 AM 49.1 °F - 49.1 °F 100% 30.01 in 10.0 mi NNE 2.3 mph - N/A   Overcast
9:08 AM 50.0 °F - 50.0 °F 100% 29.99 in 10.0 mi NE 2.3 mph - N/A   Overcast
9:13 AM 50.0 °F - 50.0 °F 100% 30.00 in 10.0 mi NNE 3.5 mph - N/A   Overcast
9:18 AM 50.0 °F - 50.0 °F 100% 30.00 in 10.0 mi NNE 2.3 mph - N/A   Overcast
9:32 AM 50.0 °F - 50.0 °F 100% 30.00 in 10.0 mi NNE 2.3 mph - N/A   Light Drizzle
9:44 AM 50.0 °F - 50.0 °F 100% 30.01 in 1.5 mi NNE 3.5 mph - N/A   Light Drizzle
9:58 AM 49.6 °F - 49.6 °F 100% 30.01 in 1.5 mi NNE 2.3 mph - 0.00 in   Light Drizzle
10:02 AM 50.0 °F - 50.0 °F 100% 30.00 in 2.0 mi NNE 2.3 mph - N/A   Overcast
10:14 AM 50.0 °F - 50.0 °F 100% 30.00 in 2.0 mi NNE 3.5 mph - N/A   Overcast
10:24 AM 50.0 °F - 50.0 °F 100% 30.00 in 2.0 mi NE 3.5 mph - N/A   Light Drizzle
10:34 AM 50.0 °F - 50.0 °F 100% 30.00 in 1.5 mi ENE 4.6 mph - N/A   Light Drizzle
10:44 AM 50.0 °F - 50.0 °F 100% 30.00 in 1.5 mi NE 4.6 mph - N/A Rain Light Rain
10:50 AM 50.0 °F - 50.0 °F 100% 30.00 in 2.0 mi ENE 4.6 mph - N/A   Light Drizzle
10:56 AM 50.0 °F - 50.0 °F 100% 30.00 in 2.5 mi ENE 5.8 mph - N/A   Overcast
10:58 AM 50.5 °F - 50.5 °F 100% 30.01 in 2.5 mi ENE 5.8 mph - 0.01 in   Overcast
11:14 AM 51.8 °F - 51.8 °F 100% 30.00 in 1.5 mi ENE 6.9 mph - N/A   Light Drizzle
11:25 AM 51.8 °F - 51.8 °F 100% 30.00 in 2.5 mi East 5.8 mph - N/A   Light Drizzle
11:30 AM 51.8 °F - 51.8 °F 100% 30.00 in 2.5 mi East 5.8 mph - N/A Rain Light Rain
11:35 AM 51.8 °F - 51.8 °F 100% 30.00 in 4.0 mi East 5.8 mph - N/A Rain Light Rain
11:40 AM 51.8 °F - 51.8 °F 100% 30.00 in 4.0 mi ENE 6.9 mph - N/A Rain Light Rain
11:45 AM 51.8 °F - 51.8 °F 100% 29.99 in 5.0 mi ENE 8.1 mph - N/A Rain Light Rain
11:58 AM 51.8 °F - 51.8 °F 100% 30.01 in 4.0 mi ENE 5.8 mph - 0.01 in   Light Drizzle
12:08 PM 51.8 °F - 51.8 °F 100% 29.99 in 5.0 mi East 3.5 mph - N/A   Light Drizzle
12:13 PM 51.8 °F - 51.8 °F 100% 30.00 in 7.0 mi East 3.5 mph - N/A   Overcast
12:28 PM 51.8 °F - 51.8 °F 100% 29.99 in 7.0 mi East 2.3 mph - N/A Rain Light Rain
12:42 PM 51.8 °F - 51.8 °F 100% 29.98 in 5.0 mi East 5.8 mph - N/A   Overcast
12:52 PM 51.8 °F - 51.8 °F 100% 29.98 in 4.0 mi ENE 3.5 mph - N/A   Overcast
12:57 PM 51.8 °F - 51.8 °F 100% 29.98 in 5.0 mi ENE 5.8 mph - N/A   Overcast
12:58 PM 51.8 °F - 51.8 °F 100% 29.99 in 5.0 mi ENE 4.6 mph - 0.02 in   Overcast
1:03 PM 51.8 °F - 51.8 °F 100% 29.98 in 6.0 mi East 3.5 mph - N/A   Overcast
1:05 PM 51.8 °F - 51.8 °F 100% 29.98 in 7.0 mi ENE 2.3 mph - N/A Rain Light Rain
1:17 PM 51.8 °F - 51.8 °F 100% 29.97 in 10.0 mi East 4.6 mph - N/A   Overcast
1:27 PM 53.6 °F - 53.6 °F 100% 29.97 in 10.0 mi East 4.6 mph - N/A   Overcast
1:47 PM 53.6 °F - 53.6 °F 100% 29.96 in 10.0 mi Variable 4.6 mph - N/A   Overcast
1:57 PM 53.6 °F - 53.6 °F 100% 29.95 in 10.0 mi East 6.9 mph - N/A   Overcast
1:58 PM 53.6 °F - 53.6 °F 100% 29.96 in 10.0 mi East 5.8 mph - 0.00 in   Overcast
2:03 PM 53.6 °F - 53.6 °F 100% 29.96 in 10.0 mi East 4.6 mph - N/A   Overcast
2:33 PM 53.6 °F - 51.8 °F 94% 29.95 in 6.0 mi ENE 2.3 mph - N/A   Overcast
2:45 PM 53.6 °F - 51.8 °F 94% 29.95 in 2.0 mi ENE 2.3 mph - N/A   Overcast
2:48 PM 53.6 °F - 51.8 °F 94% 29.95 in 4.0 mi Calm Calm - N/A   Overcast
2:58 PM 52.9 °F - 52.7 °F 99% 29.96 in 2.0 mi ENE 4.6 mph - N/A   Overcast
3:18 PM 53.6 °F - 53.6 °F 100% 29.94 in 3.0 mi NE 5.8 mph - N/A   Overcast
3:28 PM 53.6 °F - 53.6 °F 100% 29.93 in 4.0 mi ENE 4.6 mph - N/A   Overcast
3:48 PM 53.6 °F - 53.6 °F 100% 29.93 in 5.0 mi East 4.6 mph - N/A   Overcast
3:58 PM 53.2 °F - 53.2 °F 100% 29.94 in 3.0 mi NE 8.1 mph - N/A   Overcast
4:08 PM 53.6 °F - 53.6 °F 100% 29.93 in 4.0 mi ENE 5.8 mph - N/A   Overcast
4:13 PM 51.8 °F - 51.8 °F 100% 29.93 in 3.0 mi NE 6.9 mph - N/A   Overcast
4:18 PM 51.8 °F - 51.8 °F 100% 29.93 in 4.0 mi NE 5.8 mph - N/A   Overcast
4:23 PM 51.8 °F - 51.8 °F 100% 29.93 in 5.0 mi ENE 5.8 mph - N/A   Overcast
4:28 PM 51.8 °F - 51.8 °F 100% 29.93 in 4.0 mi NE 4.6 mph - N/A   Overcast
4:33 PM 51.8 °F - 51.8 °F 100% 29.93 in 3.0 mi ENE 5.8 mph - N/A   Overcast
4:43 PM 51.8 °F - 51.8 °F 100% 29.93 in 4.0 mi NE 5.8 mph - N/A   Overcast
4:48 PM 51.8 °F - 51.8 °F 100% 29.93 in 3.0 mi ENE 6.9 mph - N/A   Overcast
4:53 PM 51.8 °F - 51.8 °F 100% 29.94 in 2.5 mi ENE 6.9 mph - N/A   Overcast
4:58 PM 51.8 °F - 51.8 °F 100% 29.94 in 2.0 mi ENE 6.9 mph - N/A   Overcast
5:03 PM 51.8 °F - 51.8 °F 100% 29.93 in 2.0 mi NE 5.8 mph - N/A   Overcast
5:08 PM 51.8 °F - 51.8 °F 100% 29.93 in 2.0 mi ENE 5.8 mph - N/A   Overcast
5:28 PM 51.8 °F - 51.8 °F 100% 29.93 in 4.0 mi ENE 9.2 mph - N/A   Overcast
5:33 PM 51.8 °F - 51.8 °F 100% 29.93 in 4.0 mi NE 9.2 mph - N/A   Overcast
5:43 PM 51.8 °F - 51.8 °F 100% 29.93 in 4.0 mi NE 5.8 mph - N/A   Overcast
5:48 PM 51.8 °F - 51.8 °F 100% 29.93 in 5.0 mi NE 9.2 mph - N/A   Overcast
5:58 PM 51.1 °F - 51.1 °F 100% 29.94 in 7.0 mi ENE 8.1 mph - 0.01 in   Overcast
6:18 PM 50.0 °F - 50.0 °F 100% 29.94 in 10.0 mi NE 5.8 mph - N/A   Overcast
6:20 PM 50.0 °F - 50.0 °F 100% 29.94 in 10.0 mi ENE 5.8 mph - N/A   Light Drizzle
6:35 PM 50.0 °F - 50.0 °F 100% 29.94 in 4.0 mi NE 6.9 mph - N/A Rain Light Rain
6:40 PM 50.0 °F - 50.0 °F 100% 29.94 in 4.0 mi NE 8.1 mph - N/A Rain Light Rain
6:50 PM 50.0 °F - 50.0 °F 100% 29.95 in 5.0 mi NE 5.8 mph - N/A   Light Drizzle
6:52 PM 50.0 °F - 50.0 °F 100% 29.95 in 5.0 mi NE 5.8 mph - N/A   Overcast
6:56 PM 50.0 °F - 50.0 °F 100% 29.95 in 5.0 mi NE 4.6 mph - N/A Rain Light Rain
6:58 PM 50.0 °F - 50.0 °F 100% 29.96 in 5.0 mi NE 4.6 mph - 0.01 in Rain Light Rain
7:23 PM 50.0 °F - 50.0 °F 100% 29.95 in 4.0 mi NE 4.6 mph - N/A Rain Light Rain
7:33 PM 50.0 °F - 50.0 °F 100% 29.95 in 5.0 mi NE 4.6 mph - N/A Rain Light Rain
7:43 PM 50.0 °F - 50.0 °F 100% 29.95 in 8.0 mi NE 5.8 mph - N/A   Light Drizzle
7:46 PM 50.0 °F - 50.0 °F 100% 29.95 in 9.0 mi NE 5.8 mph - N/A   Overcast
7:51 PM 50.0 °F - 50.0 °F 100% 29.95 in 10.0 mi NE 6.9 mph - N/A   Overcast
7:56 PM 50.0 °F - 50.0 °F 100% 29.95 in 10.0 mi NE 6.9 mph - N/A   Overcast
7:58 PM 50.0 °F - 50.0 °F 100% 29.96 in 10.0 mi NE 5.8 mph - 0.03 in   Overcast
8:08 PM 50.0 °F - 50.0 °F 100% 29.96 in 10.0 mi NE 6.9 mph - N/A   Overcast
8:13 PM 50.0 °F - 50.0 °F 100% 29.96 in 10.0 mi NE 5.8 mph - N/A   Overcast
8:14 PM 50.0 °F - 50.0 °F 100% 29.96 in 10.0 mi NE 5.8 mph - N/A Rain Light Rain
8:34 PM 50.0 °F - 50.0 °F 100% 29.97 in 7.0 mi NE 5.8 mph - N/A Rain Light Rain
8:45 PM 50.0 °F - 50.0 °F 100% 29.97 in 8.0 mi NNE 5.8 mph - N/A   Overcast
8:50 PM 50.0 °F - 50.0 °F 100% 29.97 in 9.0 mi NNE 5.8 mph - N/A   Overcast
8:58 PM 49.1 °F - 49.1 °F 100% 29.99 in 7.0 mi NNE 5.8 mph - 0.01 in   Overcast
8:59 PM 50.0 °F - 50.0 °F 100% 29.98 in 6.0 mi NNE 6.9 mph - N/A Rain Light Rain
9:19 PM 50.0 °F - 50.0 °F 100% 29.98 in 5.0 mi NE 4.6 mph - N/A   Light Drizzle
9:26 PM 50.0 °F - 50.0 °F 100% 29.99 in 7.0 mi NNE 3.5 mph - N/A   Overcast
9:29 PM 48.2 °F - 48.2 °F 100% 29.99 in 7.0 mi NNE 4.6 mph - N/A Rain Light Rain
9:39 PM 48.2 °F - 48.2 °F 100% 29.99 in 4.0 mi NE 6.9 mph - N/A Rain Light Rain
9:44 PM 48.2 °F - 48.2 °F 100% 29.99 in 4.0 mi NNE 5.8 mph - N/A Rain Light Rain
9:49 PM 48.2 °F - 48.2 °F 100% 29.99 in 5.0 mi NNE 5.8 mph - N/A Rain Light Rain
9:58 PM 48.2 °F - 48.2 °F 100% 30.00 in 6.0 mi NNE 5.8 mph - 0.02 in Rain Light Rain
10:18 PM 48.2 °F - 48.2 °F 100% 29.99 in 10.0 mi NNE 5.8 mph - N/A   Light Drizzle
10:23 PM 48.2 °F - 48.2 °F 100% 29.99 in 10.0 mi NNE 5.8 mph - N/A   Light Drizzle
10:26 PM 48.2 °F - 48.2 °F 100% 29.99 in 10.0 mi NNE 5.8 mph - N/A   Overcast
10:43 PM 48.2 °F - 48.2 °F 100% 29.99 in 10.0 mi NNE 6.9 mph - N/A   Light Drizzle
10:48 PM 48.2 °F - 48.2 °F 100% 29.99 in 10.0 mi NNE 6.9 mph - N/A   Light Drizzle
10:56 PM 48.2 °F - 48.2 °F 100% 29.99 in 10.0 mi NE 6.9 mph - N/A   Overcast
10:58 PM 48.2 °F - 48.2 °F 100% 30.00 in 10.0 mi NNE 5.8 mph - 0.00 in   Overcast
11:03 PM 48.2 °F - 48.2 °F 100% 29.99 in 10.0 mi NNE 4.6 mph - N/A   Overcast
11:08 PM 48.2 °F - 48.2 °F 100% 29.99 in 10.0 mi NNE 4.6 mph - N/A   Overcast
11:13 PM 48.2 °F - 48.2 °F 100% 29.99 in 10.0 mi NNE 6.9 mph - N/A   Overcast
11:18 PM 48.2 °F - 48.2 °F 100% 30.00 in 10.0 mi NNE 5.8 mph - N/A   Overcast
11:23 PM 48.2 °F - 48.2 °F 100% 30.00 in 10.0 mi NNE 5.8 mph - N/A   Overcast
11:28 PM 48.2 °F - 48.2 °F 100% 30.00 in 10.0 mi North 5.8 mph - N/A   Overcast
11:58 PM 48.0 °F - 48.0 °F 100% 30.01 in 10.0 mi NNE 6.9 mph - N/A   Overcast